www.pogodaiklimat.ru

АРХИВ ПОГОДЫ в Краснодаре

Время (UTC), дата Ветер
(напр.,м/с)
 
Видим.   Явления Облачность Т
(С)
Тd
(С)
f
(%)
Тe
(С)
Тes
(С)
Комфортность P
(гПа)
Po
(гПа)
Тmin
(С)
Tmax
(С)
R
(мм)
S
(см)
00 21.05 штиль 0 10 км 3/3
[Sc]
+10.6 +8.5 87 +10 +10 прохладно 1019.6 1015.9
03 21.05 ЮЗ 1 10 км ясно +10.2 +7.0 81 +10 +11 холодно 1020.3 1016.6 +10.0
06 21.05 СВ 1 10 км 1/0
[Ci fib]
+18.7 +7.5 48 +20 +32 тепло 1020.1 1016.6
09 21.05 С 1 10 км 5/5 1000 м
[Cu hum]
+21.8 +6.1 36 +22 +33 комфорт 1019.4 1015.9
12 21.05 Ю 1 10 км 3/3 1000 м
[Cu hum Ci fib]
+23.4 +3.3 27 +23 +34 комфорт 1018.7 1015.2
15 21.05 СЗ 2 10 км 3/0
[Ci fib]
+23.3 +0.7 22 +22 +24 комфорт 1018.1 1014.6 +24.8
18 21.05 штиль 0 10 км 4/0
[Ac trans Ci fib]
+16.7 +6.0 49 +17 +17 по сезону 1018.7 1015.1
21 21.05 С 1 10 км 10/0
[Ci]
+16.6 +6.5 51 +18 +18 тепло 1018.2 1014.6
00 22.05 штиль 0 10 км 8/8 1000 м
[Sc]
+15.4 +6.1 54 +15 +15 по сезону 1017.2 1013.6
03 22.05 штиль 0 10 км 10/3 1000 м
[Sc Ac trans Ci]
+14.9 +7.5 61 +15 +15 по сезону 1017.0 1013.4 +13.8
06 22.05 С 1 10 км 10/0
[Ac trans Ci fib]
+21.1 +7.1 40 +22 +28 комфорт 1016.4 1012.9
09 22.05 С 2 10 км 9/3 1000 м
[Sc Ac trans Ci fib]
+25.5 +7.1 31 +25 +33 комфорт 1015.4 1011.9
12 22.05 СВ 2 10 км 9/6 1000 м
[Sc As trans Ci fib]
+25.3 +8.3 34 +26 +29 жарко 1013.9 1010.4
15 22.05 С 2 10 км 10/5 1000 м
[Sc Ac trans Ci fib]
+23.9 +9.2 39 +25 +25 комфорт 1012.4 1008.9 +26.8
18 22.05 С 2 10 км 8/6 1000 м
[Sc Ac As]
+21.6 +9.2 45 +23 +23 комфорт 1012.5 1009.0
21 22.05 С 2 10 км 8/8 1000 м
[Sc]
+18.1 +11.0 63 +19 +19 тепло 1011.9 1008.4
00 23.05 СВ 1
{10}
10 км {ливн. осадки} 9/9 1000 м
[Sc]
+15.3 +11.6 79 +16 +16 тепло 1011.3 1007.8
03 23.05 СВ 1 10 км 10/10 1000 м
[Sc]
+16.0 +11.3 74 +17 +17 по сезону 1011.8 1008.3 +15.3 2
06 23.05 С 1 4000 м слабый ливневой дождь 10/10 300 м
[Cb cap]
+15.3 +13.3 88 +16 +16 прохладно 1011.5 1007.9 +15.0
09 23.05 штиль 0 4000 м слабый ливневой дождь 10/10 300 м
[Cb cap]
+16.2 +14.2 88 +16 +16 холодно 1011.6 1008.1
12 23.05 В 1 10 км в посл. час ливневой дождь 10/10 300 м
[Cb cap]
+16.9 +14.7 87 +18 +18 холодно 1011.2 1007.6
15 23.05 СВ 1 10 км 9/8 1000 м
[Cb cap Ac trans]
+18.4 +13.5 73 +20 +20 по сезону 1010.2 1006.7 +19.3 9
18 23.05 штиль 0 10 км 3/3 1000 м
[Sc]
+16.0 +12.8 81 +16 +16 прохладно 1010.5 1006.9
21 23.05 штиль 0 10 км в посл. час ливневой дождь 10/8 600 м
[Cb cap Ac und]
+16.0 +13.2 83 +16 +16 по сезону 1010.1 1006.6
00 24.05 штиль 0 10 км {ливн. осадки} 10/6 600 м
[Cb cap Ac und]
+15.7 +13.5 87 +15 +15 по сезону 1009.4 1005.8
03 24.05 ЮЗ 1 10 км 10/4 1000 м
[Sc Ac und]
+15.1 +13.4 90 +16 +16 по сезону 1009.4 1005.8 +15.0 0.0
06 24.05 Ю 1 10 км 10/5 1000 м
[Cb cap Ac und]
+16.3 +12.9 80 +17 +19 по сезону 1010.2 1006.7
09 24.05 ЮВ 2 10 км 9/6 1000 м
[Cb cap Ac trans]
+19.0 +12.9 68 +21 +25 комфорт 1010.2 1006.6
12 24.05 Ю 2 10 км 8/4 1000 м
[Cb cap Ci fib]
+21.3 +12.4 57 +24 +30 комфорт 1009.8 1006.3
15 24.05 СВ 1 10 км в посл. час ливневой дождь 10/10 1000 м
[Cb cap]
+16.7 +13.6 82 +18 +18 прохладно 1010.7 1007.1 +22.2 6
18 24.05 ЮЗ 1 10 км {ливн. осадки} 3/3 1000 м
[Sc Ci fib]
+15.2 +12.1 82 +16 +16 прохладно 1011.0 1007.4
21 24.05 ЮЗ 1 10 км ясно +13.8 +11.3 85 +14 +14 прохладно 1011.0 1007.4
00 25.05 ЮЗ 1 10 км 3/0
[Ac trans]
+13.6 +11.5 87 +14 +14 по сезону 1010.4 1006.8
03 25.05 ЮВ 1 10 км 3/0
[Ci fib]
+13.7 +11.8 88 +14 +15 прохладно 1010.1 1006.5 +12.6
06 25.05 Ю 1 10 км 1/0
[Ci fib]
+19.9 +12.8 64 +23 +34 комфорт 1009.7 1006.2
09 25.05 ЮВ 1 10 км 8/3 1000 м
[Cu med, cong Ci fib]
+22.4 +11.0 48 +24 +38 комфорт 1008.8 1005.3
12 25.05 СВ 2 10 км 10/3 1000 м
[Cu hum Ci]
+25.3 +10.9 40 +26 +34 жарко 1007.8 1004.3
15 25.05 В 2 10 км 8/8 1000 м
[Cb cap]
+23.7 +10.8 44 +25 +26 комфорт 1007.0 1003.6 +25.4
18 25.05 СВ 2 10 км 10/0
[Ac trans Ci]
+20.9 +11.5 55 +24 +24 комфорт 1006.6 1003.1
21 25.05 СВ 2 10 км 8/4 1000 м
[Cb cap Ac trans Ci fib]
+18.6 +11.2 62 +20 +20 тепло 1005.8 1002.3
00 26.05 В 2 10 км 10/0
[Cs]
+16.9 +11.4 70 +17 +17 тепло 1005.2 1001.6
03 26.05 В 1 10 км 10/9 600 м
[Cb cap Ac und]
+16.7 +12.8 78 +18 +18 по сезону 1005.7 1002.2 +16.1
06 26.05 С 1 4000 м слабый ливневой дождь 10/10 1000 м
[Cb cap]
+17.3 +12.3 72 +18 +18 по сезону 1006.7 1003.1
09 26.05 В 1 10 км слабый ливневой дождь 10/10 1000 м
[Cb cap]
+18.4 +11.9 66 +20 +20 по сезону 1008.0 1004.5
12 26.05 ЮЗ 2 10 км {ливн. осадки} 8/4 1000 м
[Sc Ac trans]
+21.8 +12.0 54 +24 +29 комфорт 1008.3 1004.8
15 26.05 Ю 2 4000 м слабый ливневой дождь 9/9 1000 м
[Cb cap]
+20.9 +14.2 66 +24 +25 комфорт 1008.5 1005.0 +23.2 0.3
18 26.05 штиль 0 10 км {ливн. осадки} 8/3 1000 м
[Sc Ac trans Ci fib]
+18.7 +15.3 81 +20 +20 по сезону 1010.1 1006.6
21 26.05 штиль 0 10 км 1/0
[Ci fib]
+16.4 +14.3 87 +16 +16 по сезону 1010.3 1006.8
00 27.05 штиль 0 10 км 10/3
[Cb cap Ac trans Cs]
+15.2 +13.5 90 +15 +15 по сезону 1011.1 1007.5
03 27.05 В 1 4000 м в посл. час ливневой дождь 9/8 1000 м
[Sc Ac trans]
+16.2 +14.5 90 +17 +17 по сезону 1012.1 1008.5 +15.2 0.3
06 27.05 В 2 10 км {ливн. осадки} 10/10 300 м
[St]
+18.8 +14.6 77 +20 +20 тепло 1013.1 1009.5
09 27.05 СВ 1 10 км 9/9 600 м
[Cb cap]
+20.9 +14.6 67 +25 +27 комфорт 1013.7 1010.2
12 27.05 В 2 10 км 8/8 600 м
[Cu med, cong Ci fib]
+25.3 +12.9 46 +27 +30 жарко 1012.7 1009.3
15 27.05 В 2 10 км 10/5 1000 м
[Cb cap Ci ing]
+23.9 +11.9 47 +26 +27 жарко 1012.8 1009.3 +25.3
18 27.05 В 1 10 км 5/3 1000 м
[Sc diur, vesp Ci fib]
+20.6 +14.1 66 +24 +24 комфорт 1013.5 1010.0
21 27.05 СВ 2 10 км 3/0
[Ci fib]
+18.9 +14.8 77 +21 +21 комфорт 1013.2 1009.7

 

Местоположение метеостанции Краснодар (Краснодарский край, Россия): широта 45.05 долгота 39.03 высота над уровнем моря 29 м.

В архиве по умолчанию представлена погода в Краснодаре за последнюю неделю. Архивные данные за месяц целиком и за предыдущие месяцы, начиная с января 2011 года, Вы можете получить, выбрав интересующий диапазон дат из раскрывающегося списка и нажав кнопку "Ввод!".

Внимание! Время в таблицах - всемирное. Для получения местного времени необходимо прибавить поправку, которая в Krasnodar равна 3 ч.

Ветер - указаны скорость ветра в м/с - средняя за 10 мин, порывы в срок и между сроками (в фигурных скобках) и направление, откуда дует ветер: С - северный, СВ - северо-восточный, В - восточный, ЮВ - юго-восточный, Ю - южный, ЮЗ - юго-западный, З - западный, СЗ - северо-западный.
Видимость - горизонтальная дальность видимости в метрах или километрах. При видимости от 1 до 10 км при отсутствии осадков обычно наблюдается дымка, при ухудшении видимости до 1 км и менее - туман. В сухую погоду видимость может ухудшаться дымом, пылью или мглою.
Явления - указаны атмосферные явления, наблюдавшиеся в срок или в последний час перед сроком; фигурными скобками обозначены явления, наблюдавшиеся между сроками (за 1-3 часа до срока); квадратными скобками обозначены град или гололедные отложения с указанием их диаметра в мм.
Облачность - указаны через наклонную черту общая и нижняя облачность в баллах и высота нижней границы облаков в метрах; квадратными скобками обозначены формы облаков: Ci - перистые, Cs - перисто-слоистые, Cc - перисто-кучевые, Ac - высококучевые, As - высокослоистые, Sc - слоисто-кучевые, Ns - слоисто-дождевые, Cu - кучевые, Cb - кучево-дождевые. Подробнее классификацию облаков см. в Атласе облаков (PDF).
T - Температура воздуха - температура, измеренная на высоте 2 м над землей.
Td - Температура точки росы - температура, при понижении до которой содержащийся в воздухе водяной пар достигнет насыщения.
f - Относительная влажность воздуха - влажноcть воздуха, измеренная на высоте 2 м над землей.
Te - Эффективная температура - температура, которую ощущает одетый по сезону человек в тени. Характеристика душности погоды. При расчете учитывается влияние влажности воздуха и скорости ветра на теплоощущения человека.
Tes - Эффективная температура на солнце - температура, которую ощущает человек, с поправкой на солнечный нагрев. Характеристика знойности погоды. Зависит от высоты солнца над горизонтом, облачности и скорости ветра. Ночью, в пасмурную погоду, а также при ветре 12 м/с и более поправка равна нулю.
P - Атмосферное давление - приведенное к уровню моря атмосферное давление.
Po - Атмосферное давление - измеренное на уровне метеостанции атмосферное давление.
Tmin - Минимальная температура - минимум температуры воздуха на высоте 2 м над землей.
Tmax - Максимальная температура - максимум температуры воздуха на высоте 2 м над землей.
R - Количество осадков - Количество выпавших осадков, мм. При наведении курсора мыши на число - период времени, за который выпало указанное количество осадков.
S - Снежный покров - Высота снежного покрова, см. При наведении курсора мыши на число - состояние снежного покрова и степень покрытия местности в баллах.